Volver al catálogo

STARLINK-36064

ActivoComunicacionesVLEO
NORAD 66899·PAYLOAD·🇺🇸 United States

Lanzado Dec 4, 2025 desde Vandenberg Space Force Base

Loading…

Próximos Pases (próximas 24 horas)

TLE

ActualizadoSource: CelesTrak SupGP

Época: Sep 15, 2026, 04:02 UTC

1 66899C 25283X   26258.16854167 -.00061037  00000+0 -18036-2 0  2585
2 66899  53.1581 220.3535 0001427  90.8684  11.1012 15.34415920    13

Sigue STARLINK-36064 en tiempo real con AllMySat

Download on the App Store